Weather History for Glendale Luke AFB, AZ

Change the Weather History Date:

Monday, June 24, 2013

  Actual Average Record
Temperature  
Mean Temperature 90 °F -  
Max Temperature 100 °F 108 °F 118 °F (1970)
Min Temperature 79 °F 70 °F 58 °F (1945)
Cooling Degree Days 24    
Growing Degree Days 40 (Base 50)    
Moisture  
Dew Point 33 °F    
Average Humidity 14    
Maximum Humidity 23    
Minimum Humidity 8    
Precipitation  
Precipitation 0.00 in - - ()
Sea Level Pressure  
Sea Level Pressure 29.72 in    
Wind  
Wind Speed 8 mph (SSW)    
Max Wind Speed 14 mph    
Max Gust Speed 24 mph    
Visibility 10 miles    
Events      
Averages and records for this station are not official NWS values.
T = Trace of Precipitation, MM = Missing Value Source: NWS Daily Summary

Daily Weather History Graph

Daily Weather History Graph

Search for Another Location

Airport:

Trip Planner

Search our weather history database for the weather conditions in past years. The results will help you decide how hot, cold, wet, or windy it might be!

Date:

Astronomy

Jun. 24, 2013 Rise Set
Actual Time 5:20 AM MST 7:43 PM MST
Civil Twilight 4:51 AM MST 8:12 PM MST
Nautical Twilight 4:16 AM MST 8:47 PM MST
Astronomical Twilight 3:37 AM MST 9:26 PM MST
Moon 8:55 PM MST (6/24) 6:47 AM MST (6/24)
Length of Visible Light 15h 20m
Length of Day
14h 22m
Full, 97% of the Moon is Illuminated
Jun 24
Full
Jun 29
Last Quarter
Jul 8
New
Jul 15
First Quarter
Jul 22
Full

Hourly Weather History & Observations

Time (MST) Temp. Dew Point Humidity Pressure Visibility Wind Dir Wind Speed Gust Speed Precip Events Conditions
12:58 AM 85.3 °F 29.7 °F 13% 29.65 in 10.0 mi SSW 13.8 mph - N/A   Clear
1:58 AM 84.6 °F 30.9 °F 14% 29.67 in 10.0 mi SSW 10.4 mph - N/A   Clear
2:58 AM 82.4 °F 30.6 °F 15% 29.69 in 10.0 mi SSW 5.8 mph - N/A   Clear
3:58 AM 81.0 °F 29.7 °F 15% 29.69 in 10.0 mi SSW 2.3 mph - N/A   Clear
4:58 AM 80.4 °F 30.4 °F 16% 29.71 in 10.0 mi SSE 4.6 mph - N/A   Clear
5:58 AM 79.5 °F 31.6 °F 18% 29.72 in 10.0 mi Calm Calm - N/A   Clear
6:58 AM 79.2 °F 38.5 °F 23% 29.75 in 10.0 mi ESE 3.5 mph - N/A   Clear
7:58 AM 83.3 °F 33.8 °F 17% 29.77 in 10.0 mi East 2.3 mph - N/A   Clear
8:58 AM 87.4 °F 32.2 °F 14% 29.78 in 10.0 mi Variable 4.6 mph - N/A   Clear
9:58 AM 91.4 °F 30.4 °F 11% 29.78 in 10.0 mi NNE 2.3 mph - N/A   Clear
10:58 AM 92.7 °F 30.6 °F 11% 29.77 in 10.0 mi South 6.9 mph - N/A   Clear
11:58 AM 95.7 °F 28.9 °F 9% 29.76 in 10.0 mi SSE 8.1 mph - N/A   Partly Cloudy
12:58 PM 97.0 °F 28.2 °F 9% 29.74 in 10.0 mi SSW 11.5 mph - N/A   Scattered Clouds
1:30 PM 96.8 °F 26.6 °F 8% 29.78 in 10.0 mi WSW 12.7 mph - N/A   Scattered Clouds
1:58 PM 97.5 °F 27.5 °F 8% 29.73 in 10.0 mi SSW 8.1 mph 18.4 mph 0.00 in   Partly Cloudy
2:58 PM 99.7 °F 29.1 °F 8% 29.72 in 10.0 mi WSW 10.4 mph 18.4 mph N/A   Clear
3:58 PM 100.8 °F 29.8 °F 8% 29.70 in 10.0 mi SSW 9.2 mph 23.0 mph N/A   Clear
4:58 PM 100.8 °F 32.9 °F 9% 29.68 in 10.0 mi South 9.2 mph 24.2 mph N/A   Clear
5:58 PM 99.5 °F 36.9 °F 11% 29.68 in 10.0 mi SW 9.2 mph - N/A   Clear
6:58 PM 96.8 °F 42.6 °F 15% 29.68 in 10.0 mi SW 12.7 mph - N/A   Clear
7:58 PM 94.1 °F 43.5 °F 17% 29.69 in 10.0 mi WSW 5.8 mph - N/A   Clear
8:58 PM 91.8 °F 40.3 °F 17% 29.71 in 10.0 mi WSW 5.8 mph - N/A   Clear
9:58 PM 89.1 °F 41.0 °F 19% 29.73 in 10.0 mi SSW 8.1 mph - N/A   Clear
10:58 PM 89.2 °F 41.0 °F 18% 29.74 in 10.0 mi SSW 6.9 mph - N/A   Clear
11:58 PM 86.5 °F 40.1 °F 19% 29.75 in 10.0 mi SW 8.1 mph - N/A   Clear